Location: *
(49.3500°N, 12.6000°E)
Time: 19:27:16
(UTC+00:00)

Cosmos 1605 Rocket - Pass Details

Date: 18 October 2019
Orbit: 944 x 1006 km, 82.9° (Epoch: 11 November)

Event Time Altitude Azimuth Distance (km) Brightness Sun altitude
Rises 17:29:56 0° 351° (N) 3,683 7.2 -13.1°
Reaches altitude 10° 17:32:28 10° 352° (N) 2,722 6.4 -13.5°
Maximum altitude 17:38:43 80° 80° (E) 980 3.9 -14.5°
Drops below altitude 10° 17:44:49 10° 168° (SSE) 2,668 6.1 -15.5°
Sets 17:47:17 0° 169° (S) 3,604 6.8 -15.9°
